Miscellaneous Local Product
Issued by NWS North Platte, NE

Home | Current Version | Previous Version | Text Only | Print | Product List | Glossary On
Versions: 1 2 3 4 5 6 7 8 9 10 11 12 13 14 15 16 17 18 19 20 21 22 23 24 25 26 27 28 29 30 31 32 33 34 35 36 37 38 39 40 41 42 43 44 45 46 47 48 49 50
000
AXUS43 KLBF 272310
MISLBF


WESTERN AND NORTH CENTRAL NEBRASKA HOURLY WEATHER ROUNDUP
NATIONAL WEATHER SERVICE NORTH PLATTE NE
600 PM CDT WED AUG 27 2014

***STATIONS NOT REPORTING VARIABLES SUCH AS SKY/WEATHER OR
PRESSURE ARE PROVIDED BY THE NEBRASKA DEPARTMENT OF
ROADS...RAWS...AND APRS NETWORKS...AND ARE NOT UNDER
NATIONAL WEATHER SERVICE QUALITY CONTROL***

...OBSERVATIONS IN AND NEAR THE EASTERN PANHANDLE OF NEBRASKA...

CITY           SKY/WX    TMP DP  RH WIND       PRES   REMARKS
PINE RIDGE     TSTM      65  64  97 NW8       30.07R FOG
CHADRON        LGT RAIN  65  64  97 NE7       30.05F
ALLIANCE       CLOUDY    67  64  90 NW13      30.04F
SIDNEY         PTSUNNY   74  56  53 N14       30.06F
WHITECLAY        N/A     64  63  96 W6          N/A
RUSHVILLE        N/A     65  63  94 SW9         N/A
GORDON           N/A     67  66  94 S16         N/A
CRESCENT LAKE    N/A     68  63  84 N12G23      N/A
LISCO            N/A     76  67  75 W9          N/A
BIG SPRINGS      N/A     79  66  64 SE10        N/A
$$

...OBSERVATIONS IN NORTH CENTRAL NEBRASKA...

CITY           SKY/WX    TMP DP  RH WIND       PRES   REMARKS
VALENTINE      CLOUDY    75  67  76 S14       30.03F
THEDFORD       CLOUDY    73  68  83 SE13      30.06F
AINSWORTH      CLOUDY    71  66  83 S8        30.05F
O`NEILL        CLOUDY    72  68  89 E7        30.07S
ORD            CLOUDY    75  67  76 SE10      30.03F
BROKEN BOW     CLOUDY    76  67  73 SE15G23   30.04F
BROWNLEE         N/A     72  70  92 SE9         N/A
SPRINGVIEW       N/A     72  68  87 E3          N/A
ROSE             N/A     77  72  83 E8          N/A
NEWPORT          N/A     74  69  86 E8          N/A
SARGENT          N/A     76  69  78 CALM        N/A
COMSTOCK         N/A     80  74  80 S9          N/A
CHAMBERS         N/A     76  69  79 E3          N/A
EWING            N/A     72  69  90 CALM        N/A
$$

...OBSERVATIONS IN SOUTHWEST NEBRASKA AND FAR NORTHEAST COLORADO...

CITY           SKY/WX    TMP DP  RH WIND       PRES   REMARKS
WRAY             N/A     82  63  51 SE9G17    30.00F
HOLYOKE        FAIR      73  63  68 S7        30.01F
IMPERIAL       PTSUNNY   79  64  60 SE15      29.99F
OGALLALA       PTSUNNY   69  65  85 E12       30.01F
NORTH PLATTE   PTSUNNY   71  66  84 E15       30.02F
MCCOOK         PTSUNNY   73  68  84 SE18      30.02F
LEXINGTON      CLOUDY    72  70  93 SE10      30.04F
PAXTON           N/A     74  68  80 E8          N/A
SUTHERLAND       N/A     74  72  92 E9          N/A
BRADY            N/A     71  67  86 N6G14       N/A
GOTHENBURG       N/A     72  65  78 E12         N/A
CALLAWAY         N/A     74  68  82 SE18        N/A
$$

...SOME WEATHER OBSERVATIONS FROM AROUND THE REGION...

CITY           SKY/WX    TMP DP  RH WIND       PRES   REMARKS
DENVER         PTSUNNY   68  54  60 NW21G28   30.09S THUNDER
LARAMIE        PTSUNNY   59  51  75 W7        30.25S
CHEYENNE       TSTM      54  51  90 W21G36    30.20R VSB 1/2
SCOTTSBLUFF    PTSUNNY   68  63  84 W6        30.06F
RAPID CITY     CLOUDY    71  62  73 SE8       30.06F
PIERRE         CLOUDY    76  67  73 SE9       30.01F
WINNER         CLOUDY    72  66  81 SE14      30.04S
SIOUX FALLS    CLOUDY    72  64  76 SE10      30.09F
OMAHA          CLOUDY    74  69  85 E10       30.06S
GRAND ISLAND   PTSUNNY   76  71  85 SE9       30.04F
KANSAS CITY    PTSUNNY   84  70  62 E12       30.04F
WICHITA        PTSUNNY   90  63  40 SE15      29.98F HX  91
HAYS           PTSUNNY   81  66  61 SE15G22   30.01S
LIBERAL        CLOUDY    81  64  57 SE15      30.02F
GOODLAND       PTSUNNY   78  65  63 S10       30.02F
$$



USA.gov is the U.S. government's official web portal to all federal, state and local government web resources and services.